User: anonymous   Login
Location: Malvern Link
(52.1333°N, 2.3000°W)
Time: 13:13:10
(UTC+00:00)
Language:

METEOR 2-7 DEB - Orbit

View from above orbital plane
View from above orbital plane
View from above satellite
View from above satellite

Ground track
Ground track

The orbit data is extracted from the following two-line orbital elements,

1 38288U 81043W   22341.37566528  .00004203  00000-0  18032-2 0  9994
2 38288  81.2587 215.6453 0039447   7.4816 352.6943 14.24229999316307
Epoch (UTC): 07 December 2022 09:00:57
Eccentricity: 0.0039447
inclination: 81.2587°
perigee height: 783 km
apogee height: 839 km
right ascension of ascending node: 215.6453°
argument of perigee: 7.4816°
revolutions per day: 14.24229999
mean anomaly at epoch: 352.6943°
orbit number at epoch: 31630

The dashed part of the orbit path shows where the satellite is in the earth's shadow,  

DLR